Location: Gerlach
(40.6516°N, 119.3568°W)
Time: 10:57:47
(UTC-07:00)

Vanguard 2 Rocket - Pass Details

Date: 25 February 2024
Orbit: 555 x 3307 km, 32.9° (Epoch: 11 April)

Event Time Altitude Azimuth Distance (km) Brightness Sun altitude
Rises 18:26:32 0° 274° (W) 5,500 13.1 -8.8°
Reaches altitude 10° 18:29:45 10° 270° (W) 4,812 12.3 -9.5°
Maximum altitude 18:44:00 53° 200° (SSW) 3,476 9.9 -12.2°
Drops below altitude 10° 19:03:03 10° 131° (SE) 6,236 10.7 -15.8°
Enters shadow 19:06:15 - 128° (SE) 6,841 10.9 -16.4°
